Time,TemperatureF,DewpointF,PressureIn,WindDirection,WindDirectionDegrees,WindSpeedMPH,WindSpeedGustMPH,Humidity,HourlyPrecipIn,Conditions,Clouds,dailyrainin,SoftwareType,DateUTC
2013-11-20 00:12:00,25.0,22.0,30.30,WNW,292,0.0,0.0,87,0.00,,,0.00,,2013-11-20 05:12:00,
2013-11-20 00:22:00,25.0,22.0,30.30,WNW,292,0.0,0.0,87,0.00,,,0.00,,2013-11-20 05:22:00,
2013-11-20 00:43:00,24.0,22.0,30.29,WNW,292,0.0,0.0,91,0.00,,,0.00,,2013-11-20 05:43:00,
2013-11-20 00:53:00,24.0,22.0,30.29,WNW,292,0.0,0.0,91,0.00,,,0.00,,2013-11-20 05:53:00,
2013-11-20 01:12:00,24.0,22.0,30.29,SSW,196,0.0,0.0,91,0.00,,,0.00,,2013-11-20 06:12:00,
2013-11-20 01:22:00,24.0,22.0,30.29,SSW,196,0.0,0.0,91,0.00,,,0.00,,2013-11-20 06:22:00,
2013-11-20 01:42:00,24.0,21.0,30.29,ESE,121,6.0,7.0,89,0.00,,,0.00,,2013-11-20 06:42:00,
2013-11-20 01:52:00,24.0,21.0,30.29,ESE,121,6.0,7.0,89,0.00,,,0.00,,2013-11-20 06:52:00,
2013-11-20 02:11:00,25.0,21.0,30.31,ENE,76,2.0,7.0,85,0.00,,,0.00,,2013-11-20 07:11:00,
2013-11-20 02:22:00,25.0,21.0,30.30,East,97,5.0,6.0,85,0.00,,,0.00,,2013-11-20 07:22:00,
2013-11-20 02:42:00,25.0,21.0,30.30,SE,134,5.0,7.0,85,0.00,,,0.00,,2013-11-20 07:42:00,
2013-11-20 02:52:00,24.0,20.0,30.31,East,81,3.0,9.0,85,0.00,,,0.00,,2013-11-20 07:52:00,
2013-11-20 03:22:00,24.0,20.0,30.31,SE,134,6.0,10.0,86,0.00,,,0.00,,2013-11-20 08:22:00,
2013-11-20 03:42:00,24.0,21.0,30.31,SE,127,5.0,10.0,87,0.00,,,0.00,,2013-11-20 08:42:00,
2013-11-20 03:52:00,24.0,21.0,30.31,SE,136,6.0,11.0,87,0.00,,,0.00,,2013-11-20 08:52:00,
2013-11-20 04:13:00,24.0,21.0,30.31,East,95,6.0,14.0,87,0.00,,,0.00,,2013-11-20 09:13:00,
2013-11-20 04:22:00,24.0,21.0,30.31,East,95,6.0,14.0,87,0.00,,,0.00,,2013-11-20 09:22:00,
2013-11-20 04:33:00,24.0,21.0,30.31,East,95,6.0,14.0,87,0.00,,,0.00,,2013-11-20 09:33:00,
2013-11-20 05:13:00,23.0,20.0,30.32,East,100,3.0,9.0,87,0.00,,,0.00,,2013-11-20 10:13:00,
2013-11-20 05:23:00,23.0,20.0,30.32,ESE,107,5.0,9.0,87,0.00,,,0.00,,2013-11-20 10:23:00,
2013-11-20 05:43:00,23.0,20.0,30.33,SE,142,5.0,8.0,87,0.00,,,0.00,,2013-11-20 10:43:00,
2013-11-20 05:53:00,23.0,20.0,30.33,SE,142,5.0,8.0,87,0.00,,,0.00,,2013-11-20 10:53:00,
2013-11-20 06:03:00,23.0,20.0,30.33,SE,142,5.0,8.0,87,0.00,,,0.00,,2013-11-20 11:03:00,
2013-11-20 06:12:00,23.0,20.0,30.33,SE,142,5.0,8.0,87,0.00,,,0.00,,2013-11-20 11:12:00,
2013-11-20 06:43:00,22.0,19.0,30.34,SE,125,6.0,10.0,88,0.00,,,0.00,,2013-11-20 11:43:00,
2013-11-20 06:52:00,22.0,19.0,30.34,SE,128,3.0,9.0,87,0.00,,,0.00,,2013-11-20 11:52:00,
2013-11-20 07:11:00,23.0,19.0,30.35,SE,126,6.0,11.0,86,0.00,,,0.00,,2013-11-20 12:11:00,
2013-11-20 07:22:00,23.0,19.0,30.35,SE,126,6.0,11.0,86,0.00,,,0.00,,2013-11-20 12:22:00,
2013-11-20 07:32:00,23.0,19.0,30.35,SE,126,6.0,11.0,86,0.00,,,0.00,,2013-11-20 12:32:00,
2013-11-20 07:42:00,23.0,19.0,30.35,SE,126,6.0,11.0,86,0.00,,,0.00,,2013-11-20 12:42:00,
2013-11-20 07:52:00,23.0,19.0,30.36,ENE,78,10.0,12.0,85,0.00,,,0.00,,2013-11-20 12:52:00,
2013-11-20 08:12:00,23.0,19.0,30.37,SE,140,7.0,10.0,85,0.00,,,0.00,,2013-11-20 13:12:00,
2013-11-20 08:22:00,23.0,19.0,30.37,East,88,5.0,9.0,85,0.00,,,0.00,,2013-11-20 13:22:00,
2013-11-20 08:42:00,23.0,19.0,30.37,ESE,107,3.0,10.0,85,0.00,,,0.00,,2013-11-20 13:42:00,
2013-11-20 08:52:00,23.0,19.0,30.37,ESE,107,3.0,10.0,85,0.00,,,0.00,,2013-11-20 13:52:00,
2013-11-20 09:12:00,26.0,21.0,30.38,East,94,5.0,11.0,80,0.00,,,0.00,,2013-11-20 14:12:00,
2013-11-20 09:22:00,26.0,20.0,30.39,East,100,4.0,12.0,78,0.00,,,0.00,,2013-11-20 14:22:00,
2013-11-20 09:42:00,26.0,20.0,30.39,ENE,74,10.0,14.0,77,0.00,,,0.00,,2013-11-20 14:42:00,
2013-11-20 09:52:00,28.0,21.0,30.39,SE,130,4.0,17.0,76,0.00,,,0.00,,2013-11-20 14:52:00,
2013-11-20 10:11:00,29.0,21.0,30.40,ESE,110,4.0,14.0,73,0.00,,,0.00,,2013-11-20 15:11:00,
2013-11-20 10:22:00,29.0,21.0,30.40,ESE,110,4.0,14.0,73,0.00,,,0.00,,2013-11-20 15:22:00,
2013-11-20 10:43:00,30.0,20.0,30.40,SE,128,4.0,14.0,67,0.00,,,0.00,,2013-11-20 15:43:00,
2013-11-20 10:54:00,31.0,21.0,30.40,ESE,116,6.0,16.0,66,0.00,,,0.00,,2013-11-20 15:54:00,
2013-11-20 11:12:00,31.0,19.0,30.40,ESE,109,15.0,19.0,61,0.00,,,0.00,,2013-11-20 16:12:00,
2013-11-20 11:23:00,32.0,20.0,30.40,ESE,117,11.0,17.0,60,0.00,,,0.00,,2013-11-20 16:23:00,
2013-11-20 11:43:00,33.0,19.0,30.39,SE,141,10.0,23.0,57,0.00,,,0.00,,2013-11-20 16:43:00,
2013-11-20 11:52:00,34.0,20.0,30.39,East,100,7.0,15.0,56,0.00,,,0.00,,2013-11-20 16:52:00,
2013-11-20 12:02:00,34.0,20.0,30.39,East,100,7.0,15.0,56,0.00,,,0.00,,2013-11-20 17:02:00,
2013-11-20 12:12:00,34.0,20.0,30.39,East,100,7.0,15.0,56,0.00,,,0.00,,2013-11-20 17:12:00,
2013-11-20 12:22:00,34.0,20.0,30.39,East,100,7.0,15.0,56,0.00,,,0.00,,2013-11-20 17:22:00,
2013-11-20 12:42:00,35.0,20.0,30.37,SE,127,6.0,18.0,53,0.00,,,0.00,,2013-11-20 17:42:00,
2013-11-20 12:52:00,36.0,20.0,30.37,ESE,119,12.0,19.0,52,0.00,,,0.00,,2013-11-20 17:52:00,
2013-11-20 13:12:00,36.0,19.0,30.36,ESE,113,10.0,18.0,50,0.00,,,0.00,,2013-11-20 18:12:00,
2013-11-20 13:22:00,36.0,19.0,30.36,ESE,113,10.0,18.0,50,0.00,,,0.00,,2013-11-20 18:22:00,
2013-11-20 13:43:00,37.0,19.0,30.35,ESE,103,8.0,17.0,47,0.00,,,0.00,,2013-11-20 18:43:00,
2013-11-20 13:52:00,38.0,19.0,30.35,SE,128,13.0,18.0,46,0.00,,,0.00,,2013-11-20 18:52:00,
2013-11-20 14:11:00,38.0,19.0,30.35,SE,138,1.0,20.0,46,0.00,,,0.00,,2013-11-20 19:11:00,
2013-11-20 14:22:00,38.0,19.0,30.35,SE,138,1.0,20.0,46,0.00,,,0.00,,2013-11-20 19:22:00,
2013-11-20 14:42:00,38.0,19.0,30.33,East,90,13.0,20.0,45,0.00,,,0.00,,2013-11-20 19:42:00,
2013-11-20 14:52:00,38.0,19.0,30.33,SE,128,11.0,22.0,46,0.00,,,0.00,,2013-11-20 19:52:00,
2013-11-20 15:11:00,38.0,19.0,30.33,East,91,9.0,21.0,46,0.00,,,0.00,,2013-11-20 20:11:00,
2013-11-20 15:22:00,38.0,19.0,30.33,East,91,9.0,21.0,46,0.00,,,0.00,,2013-11-20 20:22:00,
2013-11-20 15:42:00,38.0,20.0,30.33,ENE,74,13.0,16.0,48,0.00,,,0.00,,2013-11-20 20:42:00,
2013-11-20 15:52:00,38.0,20.0,30.33,ENE,74,13.0,16.0,48,0.00,,,0.00,,2013-11-20 20:52:00,
2013-11-20 16:11:00,37.0,20.0,30.33,ESE,120,6.0,18.0,49,0.00,,,0.00,,2013-11-20 21:11:00,
2013-11-20 16:22:00,37.0,20.0,30.33,ESE,107,7.0,17.0,50,0.00,,,0.00,,2013-11-20 21:22:00,
2013-11-20 16:43:00,36.0,19.0,30.33,East,97,6.0,16.0,50,0.00,,,0.00,,2013-11-20 21:43:00,
2013-11-20 16:53:00,36.0,19.0,30.33,East,97,6.0,16.0,50,0.00,,,0.00,,2013-11-20 21:53:00,
2013-11-20 17:03:00,36.0,19.0,30.33,East,97,6.0,16.0,50,0.00,,,0.00,,2013-11-20 22:03:00,
2013-11-20 17:13:00,36.0,19.0,30.33,East,97,6.0,16.0,50,0.00,,,0.00,,2013-11-20 22:13:00,
2013-11-20 17:42:00,34.0,19.0,30.34,East,99,9.0,15.0,54,0.00,,,0.00,,2013-11-20 22:42:00,
2013-11-20 17:53:00,34.0,19.0,30.34,East,99,9.0,15.0,54,0.00,,,0.00,,2013-11-20 22:53:00,
2013-11-20 18:12:00,33.0,18.0,30.34,East,93,10.0,14.0,54,0.00,,,0.00,,2013-11-20 23:12:00,
2013-11-20 18:22:00,33.0,18.0,30.34,East,93,10.0,14.0,54,0.00,,,0.00,,2013-11-20 23:22:00,
2013-11-20 18:43:00,33.0,19.0,30.35,East,84,9.0,13.0,55,0.00,,,0.00,,2013-11-20 23:43:00,
2013-11-20 18:53:00,32.0,18.0,30.35,ESE,104,7.0,12.0,55,0.00,,,0.00,,2013-11-20 23:53:00,
2013-11-20 19:11:00,32.0,18.0,30.35,East,96,4.0,15.0,55,0.00,,,0.00,,2013-11-21 00:11:00,
2013-11-20 19:22:00,32.0,18.0,30.35,East,79,9.0,14.0,56,0.00,,,0.00,,2013-11-21 00:22:00,
2013-11-20 19:42:00,31.0,17.0,30.35,ESE,113,9.0,15.0,56,0.00,,,0.00,,2013-11-21 00:42:00,
2013-11-20 19:52:00,31.0,17.0,30.35,ESE,113,9.0,15.0,56,0.00,,,0.00,,2013-11-21 00:52:00,
2013-11-20 20:11:00,31.0,18.0,30.36,East,84,6.0,13.0,58,0.00,,,0.00,,2013-11-21 01:11:00,
2013-11-20 20:22:00,31.0,18.0,30.36,East,84,6.0,13.0,58,0.00,,,0.00,,2013-11-21 01:22:00,
2013-11-20 20:42:00,31.0,18.0,30.36,SE,140,5.0,15.0,59,0.00,,,0.00,,2013-11-21 01:42:00,
2013-11-20 20:52:00,31.0,18.0,30.36,SE,140,5.0,15.0,59,0.00,,,0.00,,2013-11-21 01:52:00,
2013-11-20 21:11:00,30.0,18.0,30.36,SE,125,10.0,14.0,60,0.00,,,0.00,,2013-11-21 02:11:00,
2013-11-20 21:22:00,30.0,18.0,30.36,SE,125,10.0,14.0,60,0.00,,,0.00,,2013-11-21 02:22:00,
2013-11-20 22:11:00,30.0,19.0,30.36,ENE,74,9.0,14.0,62,0.00,,,0.00,,2013-11-21 03:11:00,
2013-11-20 22:22:00,30.0,19.0,30.36,ENE,74,9.0,14.0,62,0.00,,,0.00,,2013-11-21 03:22:00,
2013-11-20 22:43:00,30.0,19.0,30.37,East,86,11.0,13.0,64,0.00,,,0.00,,2013-11-21 03:43:00,
2013-11-20 22:54:00,30.0,19.0,30.36,East,101,6.0,15.0,64,0.00,,,0.00,,2013-11-21 03:54:00,
2013-11-20 23:13:00,30.0,20.0,30.37,ESE,107,5.0,15.0,65,0.00,,,0.00,,2013-11-21 04:13:00,
2013-11-20 23:24:00,30.0,20.0,30.37,ESE,107,5.0,15.0,65,0.00,,,0.00,,2013-11-21 04:24:00,
2013-11-20 23:33:00,30.0,20.0,30.37,ESE,107,5.0,15.0,65,0.00,,,0.00,,2013-11-21 04:33:00,